START_TIME,STEP,MOV.,M35,t_acc.,PL05,t_acc.,PL06,t_acc.,PL07,t_acc.
1979-07-15 00:00:24.150 ,7,0,0.,4.8,0.,4.8,0.,4.8,0.,4.8
1979-07-15 00:00:28.950 ,7,0,0.,4.8,2.,4.8,0.,4.8,0.,4.8
1979-07-15 00:00:33.750 ,7,0,0.,4.8,3.,4.8,0.,4.8,0.,4.8
1979-07-15 00:00:38.550 ,7,0,0.,4.8,2.,4.8,0.,4.8,0.,4.8
1979-07-15 00:00:43.350 ,7,0,0.,4.8,3.,4.8,0.,4.8,0.,4.8
1979-07-15 00:00:48.150 ,6,0,0.,4.8,4.,4.8,1.,4.8,0.,4.8
1979-07-15 00:00:52.950 ,6,0,0.,4.8,4.,4.8,2.,4.8,0.,4.8
1979-07-15 00:00:57.750 ,6,0,1.,4.8,64.,4.8,15.,4.8,6.,4.8
1979-07-15 00:01:02.550 ,6,0,1.,4.8,72.,4.8,15.,4.8,7.,4.8
1979-07-15 00:01:07.350 ,6,0,0.,4.8,72.,4.8,17.,4.8,13.,4.8
1979-07-15 00:01:12.150 ,6,0,0.,4.8,78.,4.8,14.,4.8,9.,4.8
1979-07-15 00:01:16.950 ,6,0,1.,4.8,62.,4.8,12.,4.8,1.,4.8
1979-07-15 00:01:21.750 ,6,0,0.,4.8,63.,4.8,17.,4.8,7.,4.8
1979-07-15 00:01:26.550 ,6,0,0.,4.8,62.,4.8,10.,4.8,7.,4.8
1979-07-15 00:01:31.350 ,6,0,1.,4.8,56.,4.8,16.,4.8,4.,4.8
1979-07-15 00:01:36.150 ,5,0,0.,4.8,68.,4.8,11.,4.8,9.,4.8
1979-07-15 00:01:40.950 ,5,0,0.,4.8,66.,4.8,10.,4.8,7.,4.8
1979-07-15 00:01:45.750 ,5,0,0.,4.8,120.,4.8,23.,4.8,13.,4.8
1979-07-15 00:01:50.550 ,5,0,0.,4.8,144.,4.8,28.,4.8,9.,4.8
1979-07-15 00:01:55.350 ,5,0,0.,4.8,128.,4.8,32.,4.8,11.,4.8
1979-07-15 00:02:00.150 ,5,0,0.,4.8,132.,4.8,23.,4.8,5.,4.8
1979-07-15 00:02:04.950 ,5,0,1.,4.8,120.,4.8,26.,4.8,8.,4.8
1979-07-15 00:02:09.750 ,5,0,1.,4.8,148.,4.8,17.,4.8,16.,4.8
1979-07-15 00:02:14.550 ,5,0,1.,4.8,132.,4.8,21.,4.8,10.,4.8
1979-07-15 00:02:19.350 ,5,0,0.,4.8,128.,4.8,25.,4.8,7.,4.8
1979-07-15 00:02:24.150 ,4,0,0.,4.8,120.,4.8,25.,4.8,11.,4.8
1979-07-15 00:02:28.950 ,4,0,0.,4.8,128.,4.8,22.,4.8,12.,4.8
1979-07-15 00:02:33.750 ,4,0,0.,4.8,180.,4.8,27.,4.8,10.,4.8
1979-07-15 00:02:38.550 ,4,0,0.,4.8,200.,4.8,22.,4.8,5.,4.8
1979-07-15 00:02:43.350 ,4,0,0.,4.8,176.,4.8,18.,4.8,10.,4.8
1979-07-15 00:02:48.150 ,4,0,0.,4.8,228.,4.8,23.,4.8,4.,4.8
1979-07-15 00:02:52.950 ,4,0,0.,4.8,208.,4.8,24.,4.8,2.,4.8
1979-07-15 00:02:57.750 ,4,0,0.,4.8,220.,4.8,22.,4.8,8.,4.8
1979-07-15 00:03:02.550 ,4,0,0.,4.8,192.,4.8,27.,4.8,4.,4.8
1979-07-15 00:03:07.350 ,4,0,0.,4.8,180.,4.8,24.,4.8,8.,4.8
1979-07-15 00:03:12.150 ,3,0,0.,4.8,200.,4.8,28.,4.8,7.,4.8
1979-07-15 00:03:16.950 ,3,0,1.,4.8,236.,4.8,28.,4.8,6.,4.8
1979-07-15 00:03:21.750 ,3,0,0.,4.8,136.,4.8,24.,4.8,9.,4.8
1979-07-15 00:03:26.550 ,3,0,0.,4.8,128.,4.8,21.,4.8,5.,4.8
1979-07-15 00:03:31.350 ,3,0,0.,4.8,128.,4.8,24.,4.8,11.,4.8
1979-07-15 00:03:36.150 ,3,0,0.,4.8,128.,4.8,14.,4.8,13.,4.8
1979-07-15 00:03:40.950 ,3,0,0.,4.8,148.,4.8,15.,4.8,8.,4.8
1979-07-15 00:03:45.750 ,3,0,0.,4.8,108.,4.8,17.,4.8,9.,4.8
1979-07-15 00:03:50.550 ,3,0,0.,4.8,140.,4.8,16.,4.8,6.,4.8
1979-07-15 00:03:55.350 ,3,0,0.,4.8,128.,4.8,16.,4.8,7.,4.8
1979-07-15 00:04:00.150 ,2,0,0.,4.8,136.,4.8,13.,4.8,6.,4.8
1979-07-15 00:04:04.950 ,2,0,1.,4.8,128.,4.8,17.,4.8,8.,4.8
1979-07-15 00:04:09.750 ,2,0,0.,4.8,46.,4.8,7.,4.8,5.,4.8
1979-07-15 00:04:14.550 ,2,0,0.,4.8,46.,4.8,10.,4.8,6.,4.8
1979-07-15 00:04:19.350 ,2,0,0.,4.8,43.,4.8,4.,4.8,6.,4.8
1979-07-15 00:04:24.150 ,2,0,0.,4.8,44.,4.8,13.,4.8,0.,4.8
1979-07-15 00:04:28.950 ,2,0,0.,4.8,46.,4.8,4.,4.8,5.,4.8
1979-07-15 00:04:33.750 ,2,0,1.,4.8,48.,4.8,12.,4.8,8.,4.8
1979-07-15 00:04:38.550 ,2,0,0.,4.8,40.,4.8,8.,4.8,4.,4.8
1979-07-15 00:04:43.350 ,2,0,0.,4.8,46.,4.8,6.,4.8,4.,4.8
1979-07-15 00:04:48.150 ,1,0,0.,4.8,48.,4.8,14.,4.8,5.,4.8
1979-07-15 00:04:52.950 ,1,0,0.,4.8,36.,4.8,8.,4.8,7.,4.8
1979-07-15 00:04:57.750 ,1,0,0.,4.8,22.,4.8,9.,4.8,6.,4.8
1979-07-15 00:05:02.550 ,1,0,0.,4.8,22.,4.8,4.,4.8,4.,4.8
1979-07-15 00:05:07.350 ,1,0,0.,4.8,31.,4.8,6.,4.8,3.,4.8
1979-07-15 00:05:12.150 ,1,0,0.,4.8,25.,4.8,9.,4.8,8.,4.8
1979-07-15 00:05:16.950 ,1,0,0.,4.8,25.,4.8,10.,4.8,7.,4.8
1979-07-15 00:05:21.750 ,1,0,0.,4.8,24.,4.8,6.,4.8,3.,4.8
1979-07-15 00:05:26.550 ,1,0,0.,4.8,30.,4.8,7.,4.8,5.,4.8
1979-07-15 00:05:31.350 ,1,0,0.,4.8,25.,4.8,6.,4.8,7.,4.8
1979-07-15 00:05:36.150 ,0,0,0.,4.8,21.,4.8,8.,4.8,2.,4.8
1979-07-15 00:05:40.950 ,0,0,0.,4.8,28.,4.8,7.,4.8,1.,4.8
1979-07-15 00:05:45.750 ,0,0,0.,4.8,22.,4.8,3.,4.8,4.,4.8
1979-07-15 00:05:50.550 ,0,0,0.,4.8,28.,4.8,5.,4.8,4.,4.8
1979-07-15 00:05:55.350 ,0,0,0.,4.8,20.,4.8,2.,4.8,4.,4.8
1979-07-15 00:06:00.150 ,0,0,0.,4.8,19.,4.8,5.,4.8,1.,4.8
1979-07-15 00:06:04.950 ,0,0,0.,4.8,17.,4.8,6.,4.8,3.,4.8
1979-07-15 00:06:09.750 ,0,0,0.,4.8,18.,4.8,2.,4.8,2.,4.8
1979-07-15 00:06:14.550 ,0,0,0.,4.8,27.,4.8,2.,4.8,2.,4.8
1979-07-15 00:06:19.350 ,0,0,0.,4.8,23.,4.8,2.,4.8,0.,4.8
1979-07-15 00:06:24.150 ,0,0,0.,4.8,24.,4.8,7.,4.8,1.,4.8
1979-07-15 00:06:28.950 ,0,0,0.,4.8,23.,4.8,1.,4.8,1.,4.8
1979-07-15 00:06:33.750 ,0,0,0.,4.8,28.,4.8,2.,4.8,1.,4.8
1979-07-15 00:06:38.550 ,0,0,0.,4.8,20.,4.8,4.,4.8,2.,4.8
1979-07-15 00:06:43.350 ,0,0,0.,4.8,23.,4.8,6.,4.8,1.,4.8
1979-07-15 00:06:48.150 ,0,0,0.,4.8,17.,4.8,5.,4.8,4.,4.8
1979-07-15 00:06:52.950 ,0,0,0.,4.8,22.,4.8,5.,4.8,2.,4.8
1979-07-15 00:06:57.750 ,0,0,0.,4.8,20.,4.8,2.,4.8,3.,4.8
1979-07-15 00:07:02.550 ,0,0,0.,4.8,20.,4.8,4.,4.8,1.,4.8
1979-07-15 00:07:07.350 ,0,0,0.,4.8,24.,4.8,4.,4.8,3.,4.8
1979-07-15 00:07:12.150 ,1,0,0.,4.8,17.,4.8,10.,4.8,3.,4.8
1979-07-15 00:07:16.950 ,1,0,0.,4.8,24.,4.8,7.,4.8,5.,4.8
1979-07-15 00:07:21.750 ,1,0,0.,4.8,25.,4.8,3.,4.8,4.,4.8
1979-07-15 00:07:26.550 ,1,0,0.,4.8,29.,4.8,8.,4.8,3.,4.8
1979-07-15 00:07:31.350 ,1,0,0.,4.8,23.,4.8,9.,4.8,6.,4.8
1979-07-15 00:07:36.150 ,1,0,0.,4.8,22.,4.8,11.,4.8,7.,4.8
1979-07-15 00:07:40.950 ,1,0,0.,4.8,23.,4.8,10.,4.8,4.,4.8
1979-07-15 00:07:45.750 ,1,0,0.,4.8,26.,4.8,8.,4.8,8.,4.8
1979-07-15 00:07:50.550 ,1,0,0.,4.8,18.,4.8,2.,4.8,3.,4.8
1979-07-15 00:07:55.350 ,1,0,0.,4.8,27.,4.8,5.,4.8,4.,4.8
1979-07-15 00:08:00.150 ,2,0,0.,4.8,21.,4.8,8.,4.8,8.,4.8
1979-07-15 00:08:04.950 ,2,0,0.,4.8,28.,4.8,8.,4.8,7.,4.8
1979-07-15 00:08:09.750 ,2,0,0.,4.8,44.,4.8,14.,4.8,2.,4.8
1979-07-15 00:08:14.550 ,2,0,0.,4.8,48.,4.8,17.,4.8,7.,4.8
1979-07-15 00:08:19.350 ,2,0,0.,4.8,43.,4.8,15.,4.8,5.,4.8
1979-07-15 00:08:24.150 ,2,0,0.,4.8,41.,4.8,14.,4.8,3.,4.8
1979-07-15 00:08:28.950 ,2,0,0.,4.8,62.,4.8,9.,4.8,4.,4.8
1979-07-15 00:08:33.750 ,2,0,0.,4.8,66.,4.8,12.,4.8,7.,4.8
1979-07-15 00:08:38.550 ,2,0,0.,4.8,46.,4.8,6.,4.8,7.,4.8
1979-07-15 00:08:43.350 ,2,0,0.,4.8,54.,4.8,15.,4.8,8.,4.8
1979-07-15 00:08:48.150 ,3,0,0.,4.8,64.,4.8,5.,4.8,5.,4.8
1979-07-15 00:08:52.950 ,3,0,0.,4.8,58.,4.8,13.,4.8,6.,4.8
1979-07-15 00:08:57.750 ,3,0,0.,4.8,136.,4.8,18.,4.8,9.,4.8
1979-07-15 00:09:02.550 ,3,0,0.,4.8,140.,4.8,25.,4.8,11.,4.8
1979-07-15 00:09:07.350 ,3,0,0.,4.8,132.,4.8,21.,4.8,8.,4.8
1979-07-15 00:09:12.150 ,3,0,0.,4.8,136.,4.8,22.,4.8,9.,4.8
1979-07-15 00:09:16.950 ,3,0,0.,4.8,152.,4.8,23.,4.8,10.,4.8
1979-07-15 00:09:21.750 ,3,0,0.,4.8,164.,4.8,31.,4.8,4.,4.8
1979-07-15 00:09:26.550 ,3,0,1.,4.8,156.,4.8,23.,4.8,4.,4.8
1979-07-15 00:09:31.350 ,3,0,0.,4.8,152.,4.8,21.,4.8,7.,4.8
1979-07-15 00:09:36.150 ,4,0,0.,4.8,144.,4.8,31.,4.8,7.,4.8
1979-07-15 00:09:40.950 ,4,0,0.,4.8,140.,4.8,11.,4.8,7.,4.8
1979-07-15 00:09:45.750 ,4,0,1.,4.8,140.,4.8,19.,4.8,6.,4.8
1979-07-15 00:09:50.550 ,4,0,0.,4.8,152.,4.8,22.,4.8,8.,4.8
1979-07-15 00:09:55.350 ,4,0,0.,4.8,164.,4.8,28.,4.8,10.,4.8
1979-07-15 00:10:00.150 ,4,0,0.,4.8,148.,4.8,33.,4.8,4.,4.8
1979-07-15 00:10:04.950 ,4,0,0.,4.8,168.,4.8,26.,4.8,7.,4.8
1979-07-15 00:10:09.750 ,4,0,0.,4.8,180.,4.8,19.,4.8,8.,4.8
1979-07-15 00:10:14.550 ,4,0,0.,4.8,128.,4.8,22.,4.8,10.,4.8
1979-07-15 00:10:19.350 ,4,0,1.,4.8,164.,4.8,18.,4.8,10.,4.8
1979-07-15 00:10:24.150 ,5,0,0.,4.8,156.,4.8,23.,4.8,9.,4.8
1979-07-15 00:10:28.950 ,5,0,0.,4.8,126.,4.8,25.,4.8,13.,4.8
1979-07-15 00:10:33.750 ,5,0,0.,4.8,60.,4.8,19.,4.8,6.,4.8
1979-07-15 00:10:38.550 ,5,0,0.,4.8,51.,4.8,8.,4.8,6.,4.8
1979-07-15 00:10:43.350 ,5,0,0.,4.8,48.,4.8,14.,4.8,5.,4.8
1979-07-15 00:10:48.150 ,5,0,1.,4.8,44.,4.8,17.,4.8,7.,4.8
1979-07-15 00:10:52.950 ,5,0,0.,4.8,46.,4.8,12.,4.8,5.,4.8
1979-07-15 00:10:57.750 ,5,0,1.,4.8,47.,4.8,13.,4.8,7.,4.8
1979-07-15 00:11:02.550 ,5,0,0.,4.8,42.,4.8,13.,4.8,3.,4.8
1979-07-15 00:11:07.350 ,5,0,1.,4.8,33.,4.8,7.,4.8,6.,4.8
1979-07-15 00:11:12.150 ,6,0,0.,4.8,36.,4.8,10.,4.8,5.,4.8
1979-07-15 00:11:16.950 ,6,0,0.,4.8,36.,4.8,18.,4.8,9.,4.8
1979-07-15 00:11:21.750 ,6,0,1.,4.8,29.,4.8,12.,4.8,3.,4.8
1979-07-15 00:11:26.550 ,6,0,0.,4.8,30.,4.8,5.,4.8,9.,4.8
1979-07-15 00:11:31.350 ,6,0,0.,4.8,30.,4.8,3.,4.8,2.,4.8
1979-07-15 00:11:36.150 ,6,0,0.,4.8,23.,4.8,7.,4.8,7.,4.8
1979-07-15 00:11:40.950 ,6,0,0.,4.8,24.,4.8,4.,4.8,5.,4.8
1979-07-15 00:11:45.750 ,6,0,0.,4.8,44.,4.8,10.,4.8,4.,4.8
1979-07-15 00:11:50.550 ,6,0,0.,4.8,34.,4.8,12.,4.8,7.,4.8
1979-07-15 00:11:55.350 ,6,0,0.,4.8,29.,4.8,7.,4.8,4.,4.8
1979-07-15 00:12:00.150 ,7,0,0.,4.8,28.,4.8,10.,4.8,7.,4.8
1979-07-15 00:12:04.950 ,7,0,0.,4.8,37.,4.8,9.,4.8,7.,4.8
1979-07-15 00:12:09.750 ,7,0,0.,4.8,0.,4.8,0.,4.8,0.,4.8
1979-07-15 00:12:14.550 ,7,0,0.,4.8,1.,4.8,0.,4.8,0.,4.8
1979-07-15 00:12:19.350 ,7,0,0.,4.8,0.,4.8,0.,4.8,0.,4.8
1979-07-15 00:12:24.150 ,7,0,0.,4.8,0.,4.8,0.,4.8,0.,4.8
1979-07-15 00:12:28.950 ,7,0,0.,4.8,1.,4.8,0.,4.8,0.,4.8
1979-07-15 00:12:33.750 ,7,0,0.,4.8,2.,4.8,0.,4.8,1.,4.8
1979-07-15 00:12:38.550 ,7,0,0.,4.8,3.,4.8,0.,4.8,0.,4.8
1979-07-15 00:12:43.350 ,7,0,0.,4.8,0.,4.8,0.,4.8,0.,4.8
1979-07-15 00:12:48.150 ,7,0,0.,4.8,2.,4.8,1.,4.8,0.,4.8
1979-07-15 00:12:52.950 ,7,0,0.,4.8,1.,4.8,0.,4.8,0.,4.8
1979-07-15 00:12:57.750 ,7,0,0.,4.8,1.,4.8,0.,4.8,1.,4.8
1979-07-15 00:13:02.550 ,7,0,0.,4.8,1.,4.8,1.,4.8,0.,4.8
1979-07-15 00:13:07.350 ,7,0,0.,4.8,1.,4.8,0.,4.8,0.,4.8
1979-07-15 00:13:12.150 ,7,0,0.,4.8,0.,4.8,0.,4.8,0.,4.8
1979-07-15 00:13:16.950 ,7,0,0.,4.8,1.,4.8,0.,4.8,0.,4.8
1979-07-15 00:13:21.750 ,7,0,0.,4.8,1.,4.8,0.,4.8,1.,4.8
1979-07-15 00:13:26.550 ,7,0,0.,4.8,1.,4.8,0.,4.8,0.,4.8
1979-07-15 00:13:31.350 ,7,0,0.,4.8,0.,4.8,0.,4.8,2.,4.8
1979-07-15 00:13:36.150 ,6,0,0.,4.8,1.,4.8,0.,4.8,0.,4.8
1979-07-15 00:13:40.950 ,6,0,0.,4.8,1.,4.8,0.,4.8,0.,4.8
1979-07-15 00:13:45.750 ,6,0,0.,4.8,25.,4.8,9.,4.8,5.,4.8
1979-07-15 00:13:50.550 ,6,0,0.,4.8,25.,4.8,5.,4.8,3.,4.8
1979-07-15 00:13:55.350 ,6,0,0.,4.8,39.,4.8,6.,4.8,2.,4.8
1979-07-15 00:14:00.150 ,6,0,0.,4.8,34.,4.8,9.,4.8,6.,4.8
1979-07-15 00:14:04.950 ,6,0,0.,4.8,28.,4.8,4.,4.8,6.,4.8
1979-07-15 00:14:09.750 ,6,0,0.,4.8,42.,4.8,6.,4.8,3.,4.8
1979-07-15 00:14:14.550 ,6,0,0.,4.8,34.,4.8,6.,4.8,7.,4.8
1979-07-15 00:14:19.350 ,6,0,0.,4.8,32.,4.8,7.,4.8,7.,4.8
1979-07-15 00:14:24.150 ,5,0,0.,4.8,27.,4.8,6.,4.8,3.,4.8
1979-07-15 00:14:28.950 ,5,0,0.,4.8,27.,4.8,4.,4.8,3.,4.8
1979-07-15 00:14:33.750 ,5,0,0.,4.8,53.,4.8,23.,4.8,7.,4.8
1979-07-15 00:14:38.550 ,5,0,1.,4.8,62.,4.8,15.,4.8,5.,4.8
1979-07-15 00:14:43.350 ,5,0,0.,4.8,53.,4.8,20.,4.8,10.,4.8
1979-07-15 00:14:48.150 ,5,0,0.,4.8,49.,4.8,21.,4.8,10.,4.8
1979-07-15 00:14:52.950 ,5,0,1.,4.8,61.,4.8,20.,4.8,6.,4.8
1979-07-15 00:14:57.750 ,5,0,0.,4.8,58.,4.8,16.,4.8,6.,4.8
1979-07-15 00:15:02.550 ,5,0,0.,4.8,64.,4.8,24.,4.8,11.,4.8
1979-07-15 00:15:07.350 ,5,0,1.,4.8,50.,4.8,20.,4.8,5.,4.8
1979-07-15 00:15:12.150 ,4,0,0.,4.8,50.,4.8,14.,4.8,11.,4.8
1979-07-15 00:15:16.950 ,4,0,0.,4.8,59.,4.8,20.,4.8,10.,4.8
1979-07-15 00:15:21.750 ,4,0,2.,4.8,172.,4.8,37.,4.8,10.,4.8
1979-07-15 00:15:26.550 ,4,0,0.,4.8,172.,4.8,51.,4.8,5.,4.8
1979-07-15 00:15:31.350 ,4,0,1.,4.8,152.,4.8,34.,4.8,15.,4.8
1979-07-15 00:15:36.150 ,4,0,0.,4.8,136.,4.8,56.,4.8,11.,4.8
1979-07-15 00:15:40.950 ,4,0,0.,4.8,164.,4.8,48.,4.8,6.,4.8
1979-07-15 00:15:45.750 ,4,0,0.,4.8,148.,4.8,45.,4.8,11.,4.8
1979-07-15 00:15:50.550 ,4,0,0.,4.8,124.,4.8,47.,4.8,11.,4.8
1979-07-15 00:15:55.350 ,4,0,0.,4.8,140.,4.8,37.,4.8,11.,4.8
1979-07-15 00:16:00.150 ,0,0,0.,4.8,118.,4.8,40.,4.8,11.,4.8
1979-07-15 00:16:04.950 ,0,0,0.,4.8,128.,4.8,18.,4.8,16.,4.8
1979-07-15 00:16:09.750 ,0,0,0.,4.8,106.,4.8,18.,4.8,8.,4.8
1979-07-15 00:16:14.550 ,0,0,0.,4.8,38.,4.8,5.,4.8,4.,4.8
1979-07-15 00:16:19.350 ,0,0,0.,4.8,27.,4.8,0.,4.8,0.,4.8
1979-07-15 00:16:24.150 ,0,0,0.,4.8,18.,4.8,5.,4.8,4.,4.8
1979-07-15 00:16:28.950 ,0,0,0.,4.8,14.,4.8,3.,4.8,0.,4.8
1979-07-15 00:16:33.750 ,0,0,0.,4.8,13.,4.8,4.,4.8,3.,4.8
1979-07-15 00:16:38.550 ,0,0,0.,4.8,18.,4.8,3.,4.8,2.,4.8
1979-07-15 00:16:43.350 ,0,0,0.,4.8,34.,4.8,3.,4.8,2.,4.8
1979-07-15 00:16:48.150 ,0,0,0.,4.8,94.,4.8,11.,4.8,5.,4.8
1979-07-15 00:16:52.950 ,0,0,0.,4.8,152.,4.8,21.,4.8,9.,4.8
1979-07-15 00:16:57.750 ,0,0,0.,4.8,124.,4.8,27.,4.8,9.,4.8
1979-07-15 00:17:02.550 ,0,0,0.,4.8,56.,4.8,17.,4.8,10.,4.8
1979-07-15 00:17:07.350 ,0,0,0.,4.8,49.,4.8,7.,4.8,12.,4.8
1979-07-15 00:17:12.150 ,7,0,0.,4.8,29.,4.8,3.,4.8,2.,4.8
1979-07-15 00:17:16.950 ,7,0,0.,4.8,3.,4.8,0.,4.8,0.,4.8
1979-07-15 00:17:21.750 ,7,0,0.,4.8,1.,4.8,1.,4.8,0.,4.8
1979-07-15 00:17:26.550 ,7,0,0.,4.8,1.,4.8,0.,4.8,0.,4.8
1979-07-15 00:17:31.350 ,7,0,0.,4.8,1.,4.8,0.,4.8,0.,4.8
1979-07-15 00:17:36.150 ,7,0,0.,4.8,1.,4.8,0.,4.8,1.,4.8
1979-07-15 00:17:40.950 ,7,0,0.,4.8,1.,4.8,0.,4.8,0.,4.8
1979-07-15 00:17:45.750 ,7,0,0.,4.8,0.,4.8,0.,4.8,0.,4.8
1979-07-15 00:17:50.550 ,7,0,0.,4.8,1.,4.8,0.,4.8,0.,4.8
1979-07-15 00:17:55.350 ,7,0,0.,4.8,1.,4.8,0.,4.8,0.,4.8
1979-07-15 00:18:00.150 ,7,0,0.,4.8,0.,4.8,0.,4.8,0.,4.8
1979-07-15 00:18:04.950 ,7,0,0.,4.8,0.,4.8,0.,4.8,0.,4.8
1979-07-15 00:18:09.750 ,7,0,0.,4.8,1.,4.8,0.,4.8,0.,4.8
1979-07-15 00:18:14.550 ,7,0,0.,4.8,2.,4.8,0.,4.8,0.,4.8
1979-07-15 00:18:19.350 ,7,0,0.,4.8,1.,4.8,0.,4.8,0.,4.8
1979-07-15 00:18:24.150 ,7,0,0.,4.8,0.,4.8,0.,4.8,0.,4.8
1979-07-15 00:18:28.950 ,7,0,0.,4.8,2.,4.8,0.,4.8,1.,4.8
1979-07-15 00:18:33.750 ,7,0,0.,4.8,0.,4.8,0.,4.8,0.,4.8
1979-07-15 00:18:38.550 ,7,0,0.,4.8,0.,4.8,1.,4.8,0.,4.8
1979-07-15 00:18:43.350 ,7,0,0.,4.8,0.,4.8,0.,4.8,0.,4.8
1979-07-15 00:18:48.150 ,7,0,0.,4.8,0.,4.8,0.,4.8,0.,4.8
1979-07-15 00:18:52.950 ,7,0,0.,4.8,0.,4.8,0.,4.8,0.,4.8
1979-07-15 00:18:57.750 ,7,0,0.,4.8,1.,4.8,0.,4.8,2.,4.8
1979-07-15 00:19:02.550 ,7,0,0.,4.8,0.,4.8,0.,4.8,0.,4.8
1979-07-15 00:19:07.350 ,7,0,0.,4.8,0.,4.8,0.,4.8,0.,4.8
1979-07-15 00:19:12.150 ,3,1,0.,4.8,13.,4.8,2.,4.8,1.,4.8
1979-07-15 00:19:16.950 ,3,1,1.,4.8,41.,4.8,10.,4.8,3.,4.8
1979-07-15 00:19:21.750 ,3,1,0.,4.8,55.,4.8,16.,4.8,13.,4.8
1979-07-15 00:19:26.550 ,3,1,0.,4.8,104.,4.8,43.,4.8,8.,4.8
1979-07-15 00:19:31.350 ,3,1,0.,4.8,98.,4.8,33.,4.8,9.,4.8
1979-07-15 00:19:36.150 ,0,1,0.,4.8,45.,4.8,19.,4.8,4.,4.8
1979-07-15 00:19:40.950 ,0,1,0.,4.8,27.,4.8,7.,4.8,1.,4.8
1979-07-15 00:19:45.750 ,0,1,0.,4.8,10.,4.8,3.,4.8,0.,4.8
1979-07-15 00:19:50.550 ,0,1,0.,4.8,22.,4.8,2.,4.8,1.,4.8
1979-07-15 00:19:55.350 ,0,1,0.,4.8,16.,4.8,4.,4.8,5.,4.8
1979-07-15 00:20:00.150 ,4,1,0.,4.8,19.,4.8,4.,4.8,4.,4.8
1979-07-15 00:20:04.950 ,4,1,0.,4.8,16.,4.8,3.,4.8,1.,4.8
1979-07-15 00:20:09.750 ,4,1,0.,4.8,21.,4.8,2.,4.8,4.,4.8
1979-07-15 00:20:14.550 ,4,1,0.,4.8,25.,4.8,6.,4.8,3.,4.8
1979-07-15 00:20:19.350 ,4,1,0.,4.8,30.,4.8,14.,4.8,9.,4.8
1979-07-15 00:20:24.150 ,7,1,0.,4.8,39.,4.8,7.,4.8,8.,4.8
1979-07-15 00:20:28.950 ,7,1,0.,4.8,25.,4.8,6.,4.8,1.,4.8
1979-07-15 00:20:33.750 ,7,1,0.,4.8,18.,4.8,7.,4.8,2.,4.8
1979-07-15 00:20:38.550 ,7,1,0.,4.8,7.,4.8,1.,4.8,2.,4.8
1979-07-15 00:20:43.350 ,7,1,0.,4.8,0.,4.8,0.,4.8,0.,4.8
1979-07-15 00:20:48.150 ,3,1,0.,4.8,4.,4.8,1.,4.8,0.,4.8
1979-07-15 00:20:52.950 ,3,1,0.,4.8,9.,4.8,5.,4.8,7.,4.8
1979-07-15 00:20:57.750 ,3,1,0.,4.8,9.,4.8,3.,4.8,8.,4.8
1979-07-15 00:21:02.550 ,3,1,0.,4.8,27.,4.8,12.,4.8,4.,4.8
1979-07-15 00:21:07.350 ,3,1,0.,4.8,29.,4.8,10.,4.8,6.,4.8
1979-07-15 00:21:12.150 ,0,1,0.,4.8,30.,4.8,3.,4.8,4.,4.8
1979-07-15 00:21:16.950 ,0,1,0.,4.8,18.,4.8,0.,4.8,3.,4.8
1979-07-15 00:21:21.750 ,0,1,0.,4.8,6.,4.8,6.,4.8,2.,4.8
1979-07-15 00:21:26.550 ,0,1,0.,4.8,10.,4.8,0.,4.8,1.,4.8
1979-07-15 00:21:31.350 ,0,1,0.,4.8,12.,4.8,0.,4.8,3.,4.8
1979-07-15 00:21:36.150 ,4,1,0.,4.8,9.,4.8,3.,4.8,1.,4.8
1979-07-15 00:21:40.950 ,4,1,0.,4.8,7.,4.8,1.,4.8,1.,4.8
1979-07-15 00:21:45.750 ,4,1,0.,4.8,4.,4.8,3.,4.8,0.,4.8
1979-07-15 00:21:50.550 ,4,1,0.,4.8,9.,4.8,2.,4.8,2.,4.8
1979-07-15 00:21:55.350 ,4,1,0.,4.8,13.,4.8,6.,4.8,4.,4.8
1979-07-15 00:22:00.150 ,7,1,0.,4.8,3.,4.8,4.,4.8,0.,4.8
1979-07-15 00:22:04.950 ,7,1,1.,4.8,3.,4.8,3.,4.8,4.,4.8
1979-07-15 00:22:09.750 ,7,1,0.,4.8,8.,4.8,0.,4.8,2.,4.8
1979-07-15 00:22:14.550 ,7,1,0.,4.8,6.,4.8,0.,4.8,0.,4.8
1979-07-15 00:22:19.350 ,7,1,0.,4.8,0.,4.8,0.,4.8,0.,4.8
1979-07-15 00:22:24.150 ,3,1,0.,4.8,2.,4.8,1.,4.8,0.,4.8
1979-07-15 00:22:28.950 ,3,1,0.,4.8,7.,4.8,0.,4.8,3.,4.8
1979-07-15 00:22:33.750 ,3,1,0.,4.8,5.,4.8,4.,4.8,4.,4.8
1979-07-15 00:22:38.550 ,3,1,0.,4.8,6.,4.8,4.,4.8,2.,4.8
1979-07-15 00:22:43.350 ,3,1,0.,4.8,7.,4.8,5.,4.8,2.,4.8
1979-07-15 00:22:48.150 ,0,1,0.,4.8,4.,4.8,2.,4.8,4.,4.8
1979-07-15 00:22:52.950 ,0,1,0.,4.8,5.,4.8,1.,4.8,1.,4.8
1979-07-15 00:22:57.750 ,0,1,0.,4.8,6.,4.8,3.,4.8,1.,4.8
1979-07-15 00:23:02.550 ,0,1,0.,4.8,2.,4.8,0.,4.8,4.,4.8
1979-07-15 00:23:07.350 ,0,1,0.,4.8,9.,4.8,3.,4.8,1.,4.8
1979-07-15 00:23:12.150 ,4,1,0.,4.8,7.,4.8,1.,4.8,0.,4.8
1979-07-15 00:23:16.950 ,4,1,0.,4.8,4.,4.8,3.,4.8,0.,4.8
1979-07-15 00:23:21.750 ,4,1,0.,4.8,5.,4.8,0.,4.8,4.,4.8
1979-07-15 00:23:26.550 ,4,1,0.,4.8,6.,4.8,5.,4.8,2.,4.8
1979-07-15 00:23:31.350 ,4,1,0.,4.8,4.,4.8,3.,4.8,2.,4.8
1979-07-15 00:23:36.150 ,7,1,0.,4.8,5.,4.8,3.,4.8,6.,4.8
1979-07-15 00:23:40.950 ,7,1,0.,4.8,2.,4.8,1.,4.8,1.,4.8
1979-07-15 00:23:45.750 ,7,1,0.,4.8,4.,4.8,1.,4.8,0.,4.8
1979-07-15 00:23:50.550 ,7,1,0.,4.8,2.,4.8,0.,4.8,1.,4.8
1979-07-15 00:23:55.350 ,7,1,0.,4.8,0.,4.8,0.,4.8,0.,4.8
1979-07-15 00:24:00.150 ,3,1,0.,4.8,2.,4.8,0.,4.8,2.,4.8
1979-07-15 00:24:04.950 ,3,1,0.,4.8,8.,4.8,4.,4.8,2.,4.8
1979-07-15 00:24:09.750 ,3,1,0.,4.8,2.,4.8,2.,4.8,3.,4.8
1979-07-15 00:24:14.550 ,3,1,0.,4.8,4.,4.8,3.,4.8,4.,4.8
1979-07-15 00:24:19.350 ,3,1,0.,4.8,6.,4.8,1.,4.8,2.,4.8
1979-07-15 00:24:24.150 ,0,1,0.,4.8,0.,4.8,3.,4.8,1.,4.8
1979-07-15 00:24:28.950 ,0,1,0.,4.8,1.,4.8,2.,4.8,2.,4.8
1979-07-15 00:24:33.750 ,0,1,0.,4.8,8.,4.8,1.,4.8,0.,4.8
1979-07-15 00:24:38.550 ,0,1,0.,4.8,4.,4.8,1.,4.8,2.,4.8
1979-07-15 00:24:43.350 ,0,1,0.,4.8,6.,4.8,4.,4.8,1.,4.8
1979-07-15 00:24:48.150 ,4,1,0.,4.8,2.,4.8,2.,4.8,1.,4.8
1979-07-15 00:24:52.950 ,4,1,0.,4.8,1.,4.8,1.,4.8,2.,4.8
1979-07-15 00:24:57.750 ,4,1,0.,4.8,4.,4.8,3.,4.8,1.,4.8
1979-07-15 00:25:02.550 ,4,1,0.,4.8,1.,4.8,1.,4.8,1.,4.8
1979-07-15 00:25:07.350 ,4,1,0.,4.8,2.,4.8,0.,4.8,3.,4.8
1979-07-15 00:25:12.150 ,7,1,0.,4.8,1.,4.8,3.,4.8,1.,4.8
1979-07-15 00:25:16.950 ,7,1,0.,4.8,3.,4.8,1.,4.8,3.,4.8
1979-07-15 00:25:21.750 ,7,1,0.,4.8,9.,4.8,2.,4.8,1.,4.8
1979-07-15 00:25:26.550 ,7,1,0.,4.8,3.,4.8,2.,4.8,0.,4.8
1979-07-15 00:25:31.350 ,7,1,0.,4.8,0.,4.8,0.,4.8,0.,4.8
1979-07-15 00:25:36.150 ,3,1,0.,4.8,1.,4.8,0.,4.8,1.,4.8
1979-07-15 00:25:40.950 ,3,1,0.,4.8,6.,4.8,3.,4.8,2.,4.8
1979-07-15 00:25:45.750 ,3,1,0.,4.8,7.,4.8,3.,4.8,3.,4.8
1979-07-15 00:25:50.550 ,3,1,0.,4.8,3.,4.8,4.,4.8,4.,4.8
1979-07-15 00:25:55.350 ,3,1,0.,4.8,3.,4.8,4.,4.8,2.,4.8
1979-07-15 00:26:00.150 ,0,1,0.,4.8,1.,4.8,5.,4.8,5.,4.8
1979-07-15 00:26:04.950 ,0,1,0.,4.8,4.,4.8,1.,4.8,0.,4.8
1979-07-15 00:26:09.750 ,0,1,0.,4.8,4.,4.8,0.,4.8,3.,4.8
1979-07-15 00:26:14.550 ,0,1,0.,4.8,3.,4.8,2.,4.8,1.,4.8
1979-07-15 00:26:19.350 ,0,1,0.,4.8,5.,4.8,1.,4.8,1.,4.8
1979-07-15 00:26:24.150 ,4,1,0.,4.8,4.,4.8,2.,4.8,2.,4.8
1979-07-15 00:26:28.950 ,4,1,0.,4.8,2.,4.8,1.,4.8,1.,4.8
1979-07-15 00:26:33.750 ,4,1,0.,4.8,7.,4.8,1.,4.8,3.,4.8
1979-07-15 00:26:38.550 ,4,1,0.,4.8,2.,4.8,1.,4.8,3.,4.8
1979-07-15 00:26:43.350 ,4,1,0.,4.8,4.,4.8,2.,4.8,3.,4.8
1979-07-15 00:26:48.150 ,7,1,0.,4.8,1.,4.8,1.,4.8,2.,4.8
1979-07-15 00:26:52.950 ,7,1,0.,4.8,4.,4.8,3.,4.8,1.,4.8
1979-07-15 00:26:57.750 ,7,1,0.,4.8,6.,4.8,2.,4.8,0.,4.8
1979-07-15 00:27:02.550 ,7,1,0.,4.8,3.,4.8,1.,4.8,0.,4.8
1979-07-15 00:27:07.350 ,7,1,0.,4.8,0.,4.8,0.,4.8,0.,4.8
1979-07-15 00:27:12.150 ,3,1,0.,4.8,4.,4.8,1.,4.8,2.,4.8
1979-07-15 00:27:16.950 ,3,1,0.,4.8,5.,4.8,1.,4.8,3.,4.8
1979-07-15 00:27:21.750 ,3,1,0.,4.8,2.,4.8,3.,4.8,1.,4.8
1979-07-15 00:27:26.550 ,3,1,0.,4.8,2.,4.8,2.,4.8,3.,4.8
1979-07-15 00:27:31.350 ,3,1,0.,4.8,3.,4.8,2.,4.8,2.,4.8
1979-07-15 00:27:36.150 ,0,1,0.,4.8,7.,4.8,0.,4.8,1.,4.8
1979-07-15 00:27:40.950 ,0,1,0.,4.8,8.,4.8,2.,4.8,1.,4.8
1979-07-15 00:27:45.750 ,0,1,0.,4.8,1.,4.8,2.,4.8,1.,4.8
1979-07-15 00:27:50.550 ,0,1,0.,4.8,7.,4.8,2.,4.8,2.,4.8
1979-07-15 00:27:55.350 ,0,1,0.,4.8,3.,4.8,1.,4.8,4.,4.8
1979-07-15 00:28:00.150 ,4,1,0.,4.8,8.,4.8,3.,4.8,1.,4.8
1979-07-15 00:28:04.950 ,4,1,0.,4.8,7.,4.8,3.,4.8,1.,4.8
1979-07-15 00:28:09.750 ,4,1,0.,4.8,5.,4.8,2.,4.8,2.,4.8
1979-07-15 00:28:14.550 ,4,1,0.,4.8,4.,4.8,2.,4.8,2.,4.8
1979-07-15 00:28:19.350 ,4,1,0.,4.8,2.,4.8,1.,4.8,4.,4.8
1979-07-15 00:28:24.150 ,7,1,0.,4.8,2.,4.8,3.,4.8,2.,4.8
1979-07-15 00:28:28.950 ,7,1,0.,4.8,2.,4.8,1.,4.8,2.,4.8
1979-07-15 00:28:33.750 ,7,1,0.,4.8,5.,4.8,2.,4.8,5.,4.8
1979-07-15 00:28:38.550 ,7,1,0.,4.8,1.,4.8,1.,4.8,0.,4.8
1979-07-15 00:28:43.350 ,7,1,0.,4.8,0.,4.8,0.,4.8,0.,4.8
1979-07-15 00:28:48.150 ,3,1,0.,4.8,0.,4.8,1.,4.8,1.,4.8
1979-07-15 00:28:52.950 ,3,1,0.,4.8,3.,4.8,1.,4.8,0.,4.8
1979-07-15 00:28:57.750 ,3,1,0.,4.8,4.,4.8,1.,4.8,3.,4.8
1979-07-15 00:29:02.550 ,3,1,0.,4.8,1.,4.8,1.,4.8,1.,4.8
1979-07-15 00:29:07.350 ,3,1,0.,4.8,7.,4.8,2.,4.8,1.,4.8
1979-07-15 00:29:12.150 ,0,1,0.,4.8,5.,4.8,0.,4.8,2.,4.8
1979-07-15 00:29:16.950 ,0,1,0.,4.8,1.,4.8,1.,4.8,1.,4.8
1979-07-15 00:29:21.750 ,0,1,0.,4.8,8.,4.8,1.,4.8,1.,4.8
1979-07-15 00:29:26.550 ,0,1,0.,4.8,4.,4.8,3.,4.8,2.,4.8
1979-07-15 00:29:31.350 ,0,1,0.,4.8,2.,4.8,2.,4.8,2.,4.8
1979-07-15 00:29:36.150 ,0,0,0.,4.8,4.,4.8,0.,4.8,1.,4.8
1979-07-15 00:29:40.950 ,0,0,0.,4.8,3.,4.8,1.,4.8,1.,4.8
1979-07-15 00:29:45.750 ,0,0,0.,4.8,2.,4.8,1.,4.8,4.,4.8
1979-07-15 00:29:50.550 ,0,0,0.,4.8,3.,4.8,3.,4.8,0.,4.8
1979-07-15 00:29:55.350 ,0,0,0.,4.8,6.,4.8,0.,4.8,3.,4.8
1979-07-15 00:30:00.150 ,0,0,0.,4.8,3.,4.8,1.,4.8,2.,4.8
1979-07-15 00:30:04.950 ,0,0,0.,4.8,5.,4.8,3.,4.8,0.,4.8
1979-07-15 00:30:09.750 ,0,0,0.,4.8,0.,4.8,2.,4.8,5.,4.8
1979-07-15 00:30:14.550 ,0,0,0.,4.8,3.,4.8,0.,4.8,0.,4.8
1979-07-15 00:30:19.350 ,0,0,0.,4.8,1.,4.8,0.,4.8,0.,4.8
1979-07-15 00:30:24.150 ,5,0,0.,4.8,0.,4.8,0.,4.8,0.,4.8
1979-07-15 00:30:28.950 ,5,0,0.,4.8,7.,4.8,0.,4.8,3.,4.8
1979-07-15 00:30:33.750 ,5,0,0.,4.8,6.,4.8,2.,4.8,0.,4.8
1979-07-15 00:30:38.550 ,5,0,0.,4.8,2.,4.8,1.,4.8,3.,4.8
1979-07-15 00:30:43.350 ,5,0,0.,4.8,1.,4.8,1.,4.8,0.,4.8
1979-07-15 00:30:48.150 ,5,0,0.,4.8,3.,4.8,1.,4.8,2.,4.8
1979-07-15 00:30:52.950 ,5,0,0.,4.8,7.,4.8,2.,4.8,0.,4.8
1979-07-15 00:30:57.750 ,5,0,0.,4.8,1.,4.8,4.,4.8,5.,4.8
1979-07-15 00:31:02.550 ,5,0,0.,4.8,2.,4.8,2.,4.8,3.,4.8
1979-07-15 00:31:07.350 ,5,0,0.,4.8,3.,4.8,2.,4.8,3.,4.8
1979-07-15 00:31:12.150 ,4,0,0.,4.8,5.,4.8,1.,4.8,1.,4.8
1979-07-15 00:31:16.950 ,4,0,0.,4.8,3.,4.8,3.,4.8,1.,4.8
1979-07-15 00:31:21.750 ,4,0,0.,4.8,6.,4.8,4.,4.8,2.,4.8
1979-07-15 00:31:26.550 ,4,0,0.,4.8,3.,4.8,0.,4.8,0.,4.8
1979-07-15 00:31:31.350 ,4,0,0.,4.8,3.,4.8,5.,4.8,2.,4.8
1979-07-15 00:31:36.150 ,4,0,0.,4.8,4.,4.8,1.,4.8,2.,4.8
1979-07-15 00:31:40.950 ,4,0,0.,4.8,3.,4.8,2.,4.8,3.,4.8
1979-07-15 00:31:45.750 ,4,0,0.,4.8,2.,4.8,0.,4.8,4.,4.8
1979-07-15 00:31:50.550 ,4,0,0.,4.8,1.,4.8,3.,4.8,1.,4.8
1979-07-15 00:31:55.350 ,4,0,0.,4.8,5.,4.8,7.,4.8,1.,4.8
1979-07-15 00:32:00.150 ,3,0,0.,4.8,3.,4.8,2.,4.8,1.,4.8
1979-07-15 00:32:04.950 ,3,0,0.,4.8,5.,4.8,2.,4.8,3.,4.8
1979-07-15 00:32:09.750 ,3,0,0.,4.8,1.,4.8,2.,4.8,1.,4.8
1979-07-15 00:32:14.550 ,3,0,0.,4.8,6.,4.8,2.,4.8,4.,4.8
1979-07-15 00:32:19.350 ,3,0,0.,4.8,3.,4.8,2.,4.8,1.,4.8
1979-07-15 00:32:24.150 ,0,0,0.,4.8,5.,4.8,2.,4.8,0.,4.8
1979-07-15 00:32:28.950 ,0,0,0.,4.8,2.,4.8,2.,4.8,1.,4.8
1979-07-15 00:32:33.750 ,0,0,0.,4.8,1.,4.8,1.,4.8,1.,4.8
1979-07-15 00:32:38.550 ,0,0,0.,4.8,2.,4.8,2.,4.8,2.,4.8
1979-07-15 00:32:43.350 ,0,0,,0,,0,,0,,0